Stündliche Wetter Abodim

Heute, 22 Juni, Dienstag

Zeit Temperatur Niederschläge Wind Luftdruck Luftfeuchtigkeit
00:00 +23°C° 0 mm 1 m/S 748 mmHg 74%
01:00 +23°C° 0 mm 1 m/S 748 mmHg 76%
02:00 +21°C° 0 mm 2 m/S 748 mmHg 78%
03:00 +21°C° 0 mm 2 m/S 748 mmHg 80%
04:00 +23°C° 0 mm 2 m/S 748 mmHg 79%
05:00 +24°C° 0 mm 2 m/S 748 mmHg 78%
06:00 +25°C° 0 mm 2 m/S 748 mmHg 77%
07:00 +26°C° 0 mm 2 m/S 748 mmHg 72%
08:00 +28°C° 0 mm 2 m/S 748 mmHg 66%
09:00 +29°C° 0 mm 2 m/S 748 mmHg 60%
10:00 +30°C° 0 mm 2 m/S 748 mmHg 56%
11:00 +31°C° 0 mm 2 m/S 748 mmHg 52%
12:00 +32°C° 0 mm 2 m/S 748 mmHg 48%
13:00 +32°C° 0 mm 2 m/S 748 mmHg 47%
14:00 +32°C° 0 mm 2 m/S 748 mmHg 46%
15:00 +32°C° 0 mm 2 m/S 748 mmHg 45%
16:00 +32°C° 0 mm 2 m/S 748 mmHg 50%
17:00 +31°C° 0 mm 2 m/S 747 mmHg 55%
18:00 +31°C° 0 mm 1 m/S 747 mmHg 60%
19:00 +29°C° 0 mm 1 m/S 747 mmHg 62%
20:00 +27°C° 0 mm 1 m/S 747 mmHg 64%
21:00 +26°C° 0 mm 1 m/S 747 mmHg 66%
22:00 +25°C° 0 mm 1 m/S 747 mmHg 67%
23:00 +25°C° 0 mm 2 m/S 747 mmHg 68%

Morgen, 23 Juni, Mittwoch

Zeit Temperatur Niederschläge Wind Luftdruck Luftfeuchtigkeit
00:00 +24°C° 0 mm 2 m/S 747 mmHg 69%
01:00 +24°C° 0 mm 2 m/S 747 mmHg 70%
02:00 +23°C° 0 mm 2 m/S 747 mmHg 71%
03:00 +23°C° 0 mm 2 m/S 747 mmHg 71%
04:00 +24°C° 0 mm 2 m/S 747 mmHg 72%
05:00 +25°C° 0 mm 1 m/S 747 mmHg 72%
06:00 +25°C° 0 mm 1 m/S 747 mmHg 72%
07:00 +27°C° 0 mm 1 m/S 748 mmHg 67%
08:00 +28°C° 0 mm 1 m/S 748 mmHg 61%
09:00 +30°C° 0 mm 1 m/S 748 mmHg 56%
10:00 +31°C° 0 mm 1 m/S 748 mmHg 53%
11:00 +31°C° 0 mm 1 m/S 748 mmHg 49%
12:00 +32°C° 0 mm 1 m/S 748 mmHg 46%
13:00 +33°C° 0 mm 1 m/S 747 mmHg 44%
14:00 +33°C° 0 mm 1 m/S 747 mmHg 41%
15:00 +33°C° 0 mm 1 m/S 747 mmHg 39%
16:00 +33°C° 0 mm 1 m/S 747 mmHg 45%
17:00 +32°C° 0 mm 1 m/S 747 mmHg 51%
18:00 +32°C° 0 mm 1 m/S 746 mmHg 56%
19:00 +30°C° 0 mm 2 m/S 746 mmHg 60%
20:00 +28°C° 0 mm 2 m/S 746 mmHg 63%
21:00 +26°C° 0 mm 2 m/S 746 mmHg 67%
22:00 +25°C° 0 mm 2 m/S 746 mmHg 68%
23:00 +24°C° 0 mm 2 m/S 746 mmHg 70%

übermorgen, 24 Juni, Donnerstag

Zeit Temperatur Niederschläge Wind Luftdruck Luftfeuchtigkeit
00:00 +24°C° 0 mm 1 m/S 746 mmHg 72%
01:00 +23°C° 0 mm 1 m/S 746 mmHg 73%
02:00 +23°C° 0 mm 1 m/S 746 mmHg 73%
03:00 +22°C° 0 mm 1 m/S 746 mmHg 74%
04:00 +23°C° 0 mm 1 m/S 746 mmHg 73%
05:00 +24°C° 0 mm 1 m/S 746 mmHg 73%
06:00 +24°C° 0 mm 1 m/S 746 mmHg 72%
07:00 +26°C° 0 mm 1 m/S 746 mmHg 68%
08:00 +27°C° 0 mm 1 m/S 746 mmHg 63%
09:00 +29°C° 0 mm 1 m/S 746 mmHg 59%
10:00 +30°C° 0 mm 1 m/S 746 mmHg 56%
11:00 +31°C° 0 mm 1 m/S 746 mmHg 53%
12:00 +32°C° 0 mm 1 m/S 746 mmHg 50%
13:00 +32°C° 0 mm 2 m/S 746 mmHg 49%
14:00 +32°C° 0 mm 2 m/S 746 mmHg 48%
15:00 +32°C° 0 mm 2 m/S 746 mmHg 47%
16:00 +31°C° 0 mm 2 m/S 745 mmHg 53%
17:00 +30°C° 0 mm 2 m/S 745 mmHg 58%
18:00 +30°C° 0 mm 2 m/S 745 mmHg 64%
19:00 +28°C° 0.2 mm 1 m/S 745 mmHg 67%
20:00 +27°C° 0.2 mm 1 m/S 745 mmHg 71%
21:00 +25°C° 0.2 mm 1 m/S 744 mmHg 75%
22:00 +25°C° 0.6 mm 1 m/S 744 mmHg 78%
23:00 +24°C° 0.6 mm 1 m/S 744 mmHg 81%

25 Juni, Freitag

Zeit Temperatur Niederschläge Wind Luftdruck Luftfeuchtigkeit
00:00 +23°C° 0.6 mm 1 m/S 744 mmHg 84%
01:00 +23°C° 0.1 mm 1 m/S 744 mmHg 84%
02:00 +23°C° 0.1 mm 1 m/S 744 mmHg 85%
03:00 +20°C° 0.1 mm 0 m/S 744 mmHg 86%
04:00 +21°C° 0 mm 0 m/S 744 mmHg 85%
05:00 +23°C° 0 mm 1 m/S 744 mmHg 83%
06:00 +24°C° 0 mm 1 m/S 744 mmHg 81%
07:00 +26°C° 0 mm 1 m/S 744 mmHg 76%
08:00 +27°C° 0 mm 1 m/S 744 mmHg 71%
09:00 +28°C° 0 mm 1 m/S 744 mmHg 65%
10:00 +29°C° 0.3 mm 1 m/S 744 mmHg 61%
11:00 +30°C° 0.3 mm 1 m/S 744 mmHg 56%
12:00 +31°C° 0.3 mm 1 m/S 744 mmHg 51%
13:00 +31°C° 0 mm 1 m/S 744 mmHg 50%
14:00 +31°C° 0 mm 1 m/S 744 mmHg 50%
15:00 +32°C° 0 mm 1 m/S 743 mmHg 49%
16:00 +31°C° 0 mm 1 m/S 743 mmHg 53%
17:00 +31°C° 0 mm 2 m/S 743 mmHg 57%
18:00 +30°C° 0 mm 2 m/S 742 mmHg 62%
19:00 +28°C° 0.2 mm 1 m/S 742 mmHg 68%
20:00 +26°C° 0.2 mm 1 m/S 742 mmHg 75%
21:00 +24°C° 0.2 mm 1 m/S 742 mmHg 82%
22:00 +23°C° 0 mm 1 m/S 742 mmHg 83%
23:00 +23°C° 0 mm 1 m/S 742 mmHg 83%

26 Juni, Samstag

Zeit Temperatur Niederschläge Wind Luftdruck Luftfeuchtigkeit
00:00 +23°C° 0 mm 1 m/S 742 mmHg 83%
01:00 +22°C° 0.1 mm 1 m/S 742 mmHg 84%
02:00 +22°C° 0.1 mm 1 m/S 741 mmHg 86%
03:00 +20°C° 0.1 mm 0 m/S 741 mmHg 87%
04:00 +22°C° 0 mm 1 m/S 741 mmHg 85%
05:00 +23°C° 0 mm 1 m/S 742 mmHg 82%
06:00 +24°C° 0 mm 1 m/S 742 mmHg 80%
07:00 +25°C° 0 mm 1 m/S 741 mmHg 75%
08:00 +26°C° 0 mm 1 m/S 741 mmHg 71%
09:00 +28°C° 0 mm 2 m/S 741 mmHg 66%
10:00 +28°C° 0 mm 2 m/S 741 mmHg 63%
11:00 +29°C° 0 mm 2 m/S 741 mmHg 59%
12:00 +30°C° 0 mm 1 m/S 741 mmHg 55%
13:00 +30°C° 0 mm 2 m/S 741 mmHg 54%
14:00 +31°C° 0 mm 2 m/S 740 mmHg 53%
15:00 +31°C° 0 mm 2 m/S 740 mmHg 52%
16:00 +30°C° 0.1 mm 2 m/S 740 mmHg 58%
17:00 +29°C° 0.1 mm 2 m/S 740 mmHg 65%
18:00 +28°C° 0.1 mm 3 m/S 740 mmHg 71%
19:00 +26°C° 0.1 mm 2 m/S 739 mmHg 75%
20:00 +25°C° 0.1 mm 2 m/S 739 mmHg 79%
21:00 +24°C° 0.1 mm 2 m/S 739 mmHg 83%
22:00 +23°C° 0 mm 2 m/S 739 mmHg 84%
23:00 +23°C° 0 mm 2 m/S 739 mmHg 86%

27 Juni, Sonntag

Zeit Temperatur Niederschläge Wind Luftdruck Luftfeuchtigkeit
00:00 +21°C° 0 mm 2 m/S 739 mmHg 87%
01:00 +21°C° 0 mm 2 m/S 739 mmHg 88%
02:00 +22°C° 0 mm 1 m/S 739 mmHg 89%
03:00 +21°C° 0 mm 1 m/S 738 mmHg 90%
04:00 +22°C° 0 mm 1 m/S 738 mmHg 88%
05:00 +23°C° 0 mm 2 m/S 738 mmHg 86%
06:00 +23°C° 0 mm 2 m/S 738 mmHg 84%
07:00 +25°C° 0 mm 3 m/S 738 mmHg 79%
08:00 +27°C° 0 mm 3 m/S 738 mmHg 73%
09:00 +28°C° 0 mm 3 m/S 738 mmHg 67%
10:00 +29°C° 0 mm 4 m/S 739 mmHg 63%
11:00 +30°C° 0 mm 4 m/S 739 mmHg 59%
12:00 +32°C° 0 mm 4 m/S 739 mmHg 55%
13:00 +32°C° 0 mm 4 m/S 739 mmHg 54%
14:00 +33°C° 0 mm 4 m/S 739 mmHg 52%
15:00 +33°C° 0 mm 4 m/S 739 mmHg 51%
16:00 +32°C° 0.3 mm 4 m/S 739 mmHg 57%
17:00 +30°C° 0.3 mm 4 m/S 739 mmHg 64%
18:00 +28°C° 0.3 mm 4 m/S 739 mmHg 70%
19:00 +27°C° 0.1 mm 4 m/S 739 mmHg 76%
20:00 +26°C° 0.1 mm 4 m/S 739 mmHg 81%
21:00 +23°C° 0.1 mm 4 m/S 739 mmHg 87%
22:00 +22°C° 0 mm 4 m/S 739 mmHg 89%
23:00 +22°C° 0 mm 3 m/S 739 mmHg 92%
Mehr zeigen

Wir brauchen deine Erlaubnis

Meteoprog und unser Service Anbieter werden persönliche Daten aufbewahren, so wie Cookies, Geräte Bezeichnung oder ähnliche Technologien von deinem Gerät und Prozess, so wie Persönliche Daten Inhalte und Werbungen, genauso wie social Media und den Verkehr zu analysieren.

  • Aufbewahrung und/oder Zugang zu deiner Geräte Informationen.

    Cookies, Geräte Bezeichnung oder andere Informationen, können aufbewahrt oder Zugang zu deinem Gerät erhalten, für den Grund, der oben angegeben wird.

  • Personalisierte Werbung und Inhalte, Messungen, Einblick in das Publikum und Produkt Entwicklung.

    Werbungen und Inhalte können personalisiert werden, basierend auf ein Profil. Mehr Daten können besser personalisierte Werbungen und Inhalte hinzufügen. Werbung und Inhalte können gezeigt und gemessen werden. Einblicke über das Publikum, welche die Werbung gesehen haben und den Inhalt, können abgeleitet werden. So wie Daten können genutzt werden, um es zu verbessern oder die Benutzer Erfahrung zu verbessern das System und die Software.

Wenn du “Ich stimme zu” klickst, erlaubst du uns, die Cookies zu benutzen die Geräte Bezeichnung, den Web oder ähnliche Technologien zu benutzen. Deine Settings, können in deinem Gerät bei deinem Browser geändert werden.

Für den bestimmten Zweck, berechtigten Interessen beruhen darauf, mehr als auf den Inhalt. Du kannst mehr darüber in unseren Privaten und Cookie Politik lesen.